Location: Tom
(33.0437°N, 96.9452°W)
Time: 23:22:33
(UTC-06:00)

N. Korean satellite - Pass Details

Date: 27 January 2019
Orbit: 456 x 510 km, 97.2° (Epoch: 21 February)

Event Time Altitude Azimuth Distance (km) Brightness Sun altitude
Rises 19:06:54 0° 215° (SW) 2,581 11.0 -15.2°
Reaches altitude 10° 19:10:52 10° 259° (W) 1,716 10.7 -16.0°
Maximum altitude 19:11:26 10° 268° (W) 1,701 10.6 -16.1°
Drops below altitude 10° 19:12:00 10° 277° (W) 1,721 10.5 -16.3°
Sets 19:16:02 0° 320° (NW) 2,620 10.7 -17.1°
